SWA1711 KROC-KBWI

Flight info

Callsign SWA1711
Flight time 0h 59m
Altitude 32000
Route BURST DDUBS/N0434F310 IZZEE TRISH4
Aircraft B739/M-SDE2E3FGHIRWXY/LB1

Departure

Time 2026-05-07 20:00
Airport Frederick Douglass Greater Rochester International Airport (KROC)

Arrival

Time 2026-05-07 21:00
Airport Baltimore/Washington International Thurgood Marshall Airport (KBWI)
Time Latitude Longitude Altitude Speed Heading
2026-05-07 19:46 43.12662 -77.66597 549 ft 0 kts 302°
2026-05-07 19:52 43.12651 -77.66573 553 ft 3 kts 301°
2026-05-07 19:52 43.12644 -77.66543 561 ft 4 kts 252°
2026-05-07 19:52 43.12659 -77.66518 557 ft 4 kts 212°
2026-05-07 19:53 43.12668 -77.66510 554 ft 1 kts 211°
2026-05-07 19:55 43.12663 -77.66513 549 ft 2 kts 206°
2026-05-07 19:55 43.12637 -77.66510 549 ft 6 kts 159°
2026-05-07 19:55 43.12622 -77.66501 549 ft 2 kts 161°
2026-05-07 19:55 43.12584 -77.66533 549 ft 12 kts 234°
2026-05-07 19:56 43.12523 -77.66646 549 ft 18 kts 252°
2026-05-07 19:56 43.12509 -77.66803 555 ft 3 kts 262°
2026-05-07 19:56 43.12511 -77.66867 549 ft 10 kts 272°
2026-05-07 19:56 43.12511 -77.67001 549 ft 18 kts 270°
2026-05-07 19:57 43.12427 -77.67133 549 ft 23 kts 211°
2026-05-07 19:57 43.12269 -77.67266 546 ft 31 kts 212°
2026-05-07 19:57 43.12092 -77.67414 549 ft 25 kts 212°
2026-05-07 19:57 43.11928 -77.67552 549 ft 29 kts 211°
2026-05-07 19:58 43.11752 -77.67700 551 ft 32 kts 212°
2026-05-07 19:58 43.11551 -77.67869 552 ft 36 kts 211°
2026-05-07 19:58 43.11326 -77.68057 548 ft 38 kts 211°
2026-05-07 19:58 43.11136 -77.68217 549 ft 33 kts 212°
2026-05-07 19:59 43.10938 -77.68384 555 ft 32 kts 211°
2026-05-07 19:59 43.10739 -77.68550 548 ft 32 kts 211°
2026-05-07 19:59 43.10661 -77.68678 548 ft 17 kts 284°
2026-05-07 19:59 43.10760 -77.68714 549 ft 20 kts 32°
2026-05-07 20:00 43.11007 -77.68507 556 ft 74 kts 32°
2026-05-07 20:00 43.11623 -77.67988 548 ft 131 kts 31°
2026-05-07 20:00 43.12504 -77.67244 747 ft 156 kts 32°
2026-05-07 20:00 43.13415 -77.66419 1335 ft 164 kts 31°
2026-05-07 20:01 43.14367 -77.65429 1790 ft 181 kts 43°
2026-05-07 20:01 43.14803 -77.63796 2292 ft 193 kts 93°
2026-05-07 20:01 43.14230 -77.62100 2478 ft 208 kts 141°
2026-05-07 20:01 43.12895 -77.61297 2668 ft 218 kts 176°
2026-05-07 20:02 43.11353 -77.61468 2823 ft 230 kts 197°
2026-05-07 20:02 43.09762 -77.62080 3013 ft 247 kts 201°
2026-05-07 20:02 43.08072 -77.62794 3375 ft 260 kts 200°
2026-05-07 20:02 43.06336 -77.63524 4091 ft 260 kts 200°
2026-05-07 20:03 43.04603 -77.64241 4818 ft 260 kts 201°
2026-05-07 20:03 43.02870 -77.64951 5536 ft 262 kts 201°
2026-05-07 20:03 43.01110 -77.65621 6272 ft 263 kts 198°
2026-05-07 20:03 42.99343 -77.66299 6960 ft 264 kts 200°
2026-05-07 20:04 42.97572 -77.67006 7646 ft 266 kts 200°
2026-05-07 20:04 42.95788 -77.67717 8335 ft 267 kts 201°
2026-05-07 20:04 42.94012 -77.68420 9135 ft 266 kts 201°
2026-05-07 20:04 42.92223 -77.69121 9860 ft 269 kts 201°
2026-05-07 20:05 42.90399 -77.69834 10353 ft 280 kts 201°
2026-05-07 20:05 42.88449 -77.70600 10512 ft 302 kts 201°
2026-05-07 20:05 42.86359 -77.71417 10691 ft 322 kts 200°
2026-05-07 20:05 42.84165 -77.72266 11138 ft 331 kts 200°
2026-05-07 20:06 42.81932 -77.73123 11753 ft 335 kts 201°
2026-05-07 20:06 42.79705 -77.73976 12420 ft 338 kts 201°
2026-05-07 20:06 42.77426 -77.74850 13120 ft 342 kts 201°
2026-05-07 20:06 42.75122 -77.75734 13742 ft 347 kts 202°
2026-05-07 20:07 42.73543 -77.76340 14150 ft 350 kts 202°
2026-05-07 20:07 42.71232 -77.77225 14885 ft 350 kts 202°
2026-05-07 20:07 42.68886 -77.78123 15626 ft 351 kts 202°
2026-05-07 20:07 42.65732 -77.79330 16594 ft 353 kts 202°
2026-05-07 20:08 42.64165 -77.79929 17057 ft 354 kts 201°
2026-05-07 20:08 42.61787 -77.80840 17729 ft 357 kts 201°
2026-05-07 20:08 42.59386 -77.81758 18337 ft 359 kts 201°
2026-05-07 20:08 42.56979 -77.82677 18947 ft 359 kts 202°
2026-05-07 20:09 42.54573 -77.83593 19636 ft 358 kts 202°
2026-05-07 20:09 42.52101 -77.84250 20272 ft 366 kts 194°
2026-05-07 20:09 42.49524 -77.84365 20822 ft 377 kts 186°
2026-05-07 20:10 42.44228 -77.83895 21916 ft 383 kts 186°
2026-05-07 20:10 42.41551 -77.83637 22460 ft 386 kts 186°
2026-05-07 20:10 42.38866 -77.83381 22999 ft 388 kts 186°
2026-05-07 20:10 42.36163 -77.83132 23462 ft 391 kts 187°
2026-05-07 20:11 42.33440 -77.82888 23863 ft 394 kts 187°
2026-05-07 20:11 42.30699 -77.82647 24278 ft 396 kts 187°
2026-05-07 20:11 42.27939 -77.82407 24691 ft 398 kts 188°
2026-05-07 20:11 42.25208 -77.82168 25167 ft 398 kts 188°
2026-05-07 20:12 42.22451 -77.81925 25762 ft 395 kts 188°
2026-05-07 20:12 42.19709 -77.81684 26340 ft 393 kts 188°
2026-05-07 20:12 42.16980 -77.81446 26858 ft 392 kts 189°
2026-05-07 20:12 42.14256 -77.81212 27400 ft 392 kts 189°
2026-05-07 20:13 42.11538 -77.80978 27928 ft 391 kts 189°
2026-05-07 20:13 42.08827 -77.80745 28506 ft 389 kts 189°
2026-05-07 20:13 42.06125 -77.80513 28934 ft 390 kts 189°
2026-05-07 20:14 42.00656 -77.80054 28911 ft 393 kts 189°
2026-05-07 20:14 41.95292 -77.79585 28873 ft 387 kts 189°
2026-05-07 20:15 41.89900 -77.79128 28921 ft 390 kts 189°
2026-05-07 20:15 41.84462 -77.78670 28923 ft 393 kts 189°
2026-05-07 20:16 41.78979 -77.78205 28908 ft 395 kts 189°
2026-05-07 20:16 41.73496 -77.77733 28854 ft 394 kts 189°
2026-05-07 20:17 41.68045 -77.77267 28885 ft 392 kts 189°
2026-05-07 20:17 41.62600 -77.76805 28905 ft 392 kts 189°
2026-05-07 20:18 41.57155 -77.76346 28891 ft 392 kts 189°
2026-05-07 20:18 41.51710 -77.75889 28867 ft 390 kts 189°
2026-05-07 20:19 41.46252 -77.74859 28886 ft 411 kts 176°
2026-05-07 20:19 41.40808 -77.72531 28879 ft 414 kts 174°
2026-05-07 20:20 41.35337 -77.70157 28901 ft 412 kts 175°
2026-05-07 20:20 41.29856 -77.67808 28865 ft 414 kts 175°
2026-05-07 20:21 41.24352 -77.65503 28882 ft 414 kts 175°
2026-05-07 20:21 41.18836 -77.63199 28884 ft 416 kts 175°
2026-05-07 20:22 41.13341 -77.60895 28867 ft 417 kts 175°
2026-05-07 20:22 41.07798 -77.58572 28840 ft 417 kts 174°
2026-05-07 20:23 41.02261 -77.56259 28870 ft 418 kts 174°
2026-05-07 20:23 40.96694 -77.53939 28875 ft 419 kts 174°
2026-05-07 20:24 40.91246 -77.51041 28883 ft 424 kts 163°
2026-05-07 20:24 40.86238 -77.47144 28862 ft 414 kts 161°
2026-05-07 20:25 40.81303 -77.43253 28883 ft 416 kts 161°
2026-05-07 20:25 40.76278 -77.39421 28870 ft 417 kts 162°
2026-05-07 20:26 40.71233 -77.35632 28879 ft 417 kts 162°
2026-05-07 20:26 40.66187 -77.31851 28879 ft 416 kts 162°
2026-05-07 20:27 40.61165 -77.28145 28872 ft 413 kts 162°
2026-05-07 20:27 40.56175 -77.24393 28873 ft 413 kts 162°
2026-05-07 20:28 40.51182 -77.20658 28867 ft 412 kts 163°
2026-05-07 20:28 40.46230 -77.16974 28868 ft 411 kts 163°
2026-05-07 20:29 40.41250 -77.13278 28875 ft 411 kts 163°
2026-05-07 20:29 40.36278 -77.09593 28878 ft 410 kts 163°
2026-05-07 20:30 40.31302 -77.05913 28876 ft 411 kts 163°
2026-05-07 20:30 40.26545 -77.01536 28902 ft 433 kts 147°
2026-05-07 20:31 40.22282 -76.95894 28887 ft 437 kts 145°
2026-05-07 20:31 40.18030 -76.90216 28879 ft 437 kts 146°
2026-05-07 20:32 40.13726 -76.84607 28826 ft 436 kts 148°
2026-05-07 20:32 40.09409 -76.79050 28861 ft 436 kts 148°
2026-05-07 20:33 40.05081 -76.73502 28881 ft 436 kts 148°
2026-05-07 20:33 40.00742 -76.67943 28876 ft 438 kts 148°
2026-05-07 20:34 39.96424 -76.62416 28871 ft 438 kts 148°
2026-05-07 20:34 39.92076 -76.56862 28882 ft 437 kts 149°
2026-05-07 20:34 39.89763 -76.54457 28847 ft 410 kts 167°
2026-05-07 20:35 39.87214 -76.53163 28908 ft 386 kts 177°
2026-05-07 20:35 39.82075 -76.51047 28874 ft 388 kts 177°
2026-05-07 20:36 39.76952 -76.48868 28885 ft 386 kts 177°
2026-05-07 20:36 39.71862 -76.46670 28880 ft 385 kts 177°
2026-05-07 20:37 39.66795 -76.44480 28847 ft 383 kts 178°
2026-05-07 20:37 39.61795 -76.42318 28882 ft 379 kts 178°
2026-05-07 20:38 39.56791 -76.40163 28892 ft 379 kts 178°
2026-05-07 20:38 39.51773 -76.38059 28876 ft 371 kts 184°
2026-05-07 20:38 39.49324 -76.37820 28896 ft 340 kts 200°
2026-05-07 20:39 39.47069 -76.38375 28894 ft 325 kts 208°
2026-05-07 20:39 39.42708 -76.39913 28865 ft 325 kts 208°
2026-05-07 20:40 39.38333 -76.41400 28889 ft 324 kts 208°
2026-05-07 20:40 39.34117 -76.42788 28643 ft 298 kts 209°
2026-05-07 20:40 39.32133 -76.43446 28185 ft 290 kts 209°
2026-05-07 20:41 39.30210 -76.44084 27909 ft 278 kts 209°
2026-05-07 20:41 39.28415 -76.44672 27808 ft 262 kts 210°
2026-05-07 20:41 39.26682 -76.45252 27480 ft 254 kts 211°
2026-05-07 20:41 39.24981 -76.45827 26962 ft 252 kts 210°
2026-05-07 20:42 39.23282 -76.46398 26414 ft 251 kts 210°
2026-05-07 20:42 39.21617 -76.46948 26094 ft 244 kts 211°
2026-05-07 20:42 39.19992 -76.47461 25679 ft 238 kts 210°
2026-05-07 20:42 39.18378 -76.47944 25019 ft 238 kts 209°
2026-05-07 20:43 39.16766 -76.48424 24492 ft 235 kts 209°
2026-05-07 20:43 39.15240 -76.48862 24397 ft 215 kts 210°
2026-05-07 20:43 39.13760 -76.49086 24088 ft 228 kts 193°
2026-05-07 20:43 39.12148 -76.48594 23635 ft 249 kts 179°
2026-05-07 20:44 39.10549 -76.47393 23081 ft 276 kts 163°
2026-05-07 20:44 39.09001 -76.45928 22567 ft 276 kts 162°
2026-05-07 20:44 39.07460 -76.44468 22096 ft 273 kts 162°
2026-05-07 20:44 39.05904 -76.43168 21574 ft 255 kts 174°
2026-05-07 20:45 39.04296 -76.42306 21072 ft 248 kts 177°
2026-05-07 20:45 39.02691 -76.41533 20563 ft 246 kts 178°
2026-05-07 20:45 39.01087 -76.40788 20077 ft 241 kts 181°
2026-05-07 20:45 38.99595 -76.40762 19544 ft 195 kts 216°
2026-05-07 20:46 38.98543 -76.41673 19044 ft 183 kts 230°
2026-05-07 20:46 38.97737 -76.42916 18490 ft 181 kts 244°
2026-05-07 20:46 38.97315 -76.44356 18331 ft 164 kts 257°
2026-05-07 20:46 38.97294 -76.45808 17900 ft 166 kts 274°
2026-05-07 20:47 38.97919 -76.47149 17307 ft 194 kts 307°
2026-05-07 20:47 38.99275 -76.47817 16758 ft 229 kts 341°
2026-05-07 20:47 39.00930 -76.47404 16250 ft 260 kts 15°
2026-05-07 20:47 39.02425 -76.45996 15844 ft 270 kts 37°
2026-05-07 20:48 39.03484 -76.43975 15335 ft 278 kts 71°
2026-05-07 20:48 39.03724 -76.41557 14884 ft 269 kts 100°
2026-05-07 20:48 39.03551 -76.39193 14490 ft 264 kts 103°
2026-05-07 20:48 39.03346 -76.36856 14147 ft 259 kts 104°
2026-05-07 20:49 39.03150 -76.34589 13846 ft 253 kts 104°
2026-05-07 20:49 39.02837 -76.32402 13408 ft 241 kts 124°
2026-05-07 20:49 39.01899 -76.30821 12924 ft 208 kts 161°
2026-05-07 20:49 39.00653 -76.30102 12464 ft 192 kts 176°
2026-05-07 20:50 38.99378 -76.29570 11978 ft 193 kts 177°
2026-05-07 20:50 38.98099 -76.29068 11484 ft 196 kts 177°
2026-05-07 20:50 38.96792 -76.28574 11078 ft 195 kts 178°
2026-05-07 20:50 38.95489 -76.28141 10666 ft 187 kts 189°
2026-05-07 20:51 38.94408 -76.28617 10181 ft 156 kts 238°
2026-05-07 20:51 38.94074 -76.29876 9706 ft 151 kts 260°
2026-05-07 20:51 38.93980 -76.31216 9233 ft 153 kts 275°
2026-05-07 20:51 38.94303 -76.32534 8774 ft 158 kts 294°
2026-05-07 20:52 38.94879 -76.33742 8368 ft 159 kts 297°
2026-05-07 20:52 38.95479 -76.34934 7974 ft 159 kts 298°
2026-05-07 20:52 38.96083 -76.36129 7557 ft 160 kts 298°
2026-05-07 20:52 38.96693 -76.37335 7152 ft 161 kts 299°
2026-05-07 20:53 38.97304 -76.38543 6764 ft 161 kts 300°
2026-05-07 20:53 38.97916 -76.39754 6376 ft 161 kts 301°
2026-05-07 20:53 38.98521 -76.40953 5852 ft 160 kts 301°
2026-05-07 20:53 38.99129 -76.42157 5330 ft 160 kts 302°
2026-05-07 20:54 38.99734 -76.43356 4874 ft 159 kts 303°
2026-05-07 20:54 39.00334 -76.44545 4417 ft 158 kts 304°
2026-05-07 20:54 39.00936 -76.45739 3910 ft 160 kts 304°
2026-05-07 20:54 39.01543 -76.46943 3382 ft 161 kts 304°
2026-05-07 20:55 39.02159 -76.48166 2818 ft 167 kts 304°
2026-05-07 20:55 39.02581 -76.49003 2584 ft 163 kts 304°
2026-05-07 20:55 39.03212 -76.50254 2343 ft 169 kts 303°
2026-05-07 20:55 39.04073 -76.51968 2366 ft 174 kts 302°
2026-05-07 20:56 39.04516 -76.52853 2369 ft 175 kts 303°
2026-05-07 20:56 39.05391 -76.54595 2376 ft 174 kts 303°
2026-05-07 20:56 39.05835 -76.55482 2372 ft 175 kts 303°
2026-05-07 20:56 39.06493 -76.56779 2340 ft 171 kts 304°
2026-05-07 20:57 39.07359 -76.57818 2335 ft 173 kts 326°
2026-05-07 20:57 39.08325 -76.58684 2124 ft 168 kts 323°
2026-05-07 20:57 39.09243 -76.59553 1900 ft 160 kts 323°
2026-05-07 20:57 39.10140 -76.60393 1708 ft 161 kts 324°
2026-05-07 20:58 39.11047 -76.61239 1480 ft 162 kts 324°
2026-05-07 20:58 39.11953 -76.62083 1267 ft 161 kts 324°
2026-05-07 20:58 39.12861 -76.62926 1049 ft 161 kts 324°
2026-05-07 20:58 39.13769 -76.63772 822 ft 161 kts 324°
2026-05-07 20:59 39.14683 -76.64620 616 ft 163 kts 324°
2026-05-07 20:59 39.15602 -76.65467 408 ft 162 kts 323°
2026-05-07 20:59 39.16506 -76.66322 189 ft 160 kts 323°
2026-05-07 20:59 39.17346 -76.67102 149 ft 132 kts 324°
2026-05-07 21:00 39.17916 -76.67625 144 ft 66 kts 324°
2026-05-07 21:00 39.18117 -76.67757 143 ft 19 kts
2026-05-07 21:00 39.18147 -76.67666 145 ft 9 kts 131°
2026-05-07 21:00 39.18096 -76.67616 146 ft 9 kts 144°
2026-05-07 21:01 39.18055 -76.67579 145 ft 7 kts 144°
2026-05-07 21:01 39.18017 -76.67544 146 ft 7 kts 144°
2026-05-07 21:01 39.17977 -76.67506 146 ft 9 kts 144°
2026-05-07 21:01 39.17900 -76.67434 147 ft 18 kts 144°
2026-05-07 21:02 39.17866 -76.67361 150 ft 5 kts 66°
2026-05-07 21:02 39.17873 -76.67310 152 ft 9 kts 110°
2026-05-07 21:02 39.17816 -76.67246 153 ft 13 kts 144°
2026-05-07 21:02 39.17743 -76.67179 156 ft 12 kts 143°
2026-05-07 21:03 39.17716 -76.67114 154 ft 9 kts 93°
2026-05-07 21:03 39.17715 -76.67060 154 ft 3 kts 91°
2026-05-07 21:03 39.17714 -76.67051 154 ft 0 kts 91°